Dewpoint
54 56 59 60 61 61 60 59 56 50 51 53 57 60 62 62 60 60 60 56 51 51 51 53 55 56 56 57 58 59 60 60 59 58 58 58 57 57
49 50 57 59 61 61 60 59 58 55 52 54 55 57 61 61 60 61 61 55 50 50 49 50 51 52 53 55 56 57 58 58 58 57 57 57 57 57
50 53 54 56 59 59 59 58 57 56 53 56 57 58 58 60 61 60 61 60 59 49 49 48 48 49 50 51 52 53 55 55 56 56 57 57 58 57
49 52 53 56 57 57 56 57 57 57 56 54 56 57 57 59 60 60 60 60 60 53 50 49 48 47 48 48 49 50 50 51 52 53 54 55 56 57
40 39 39 43 52 55 55 55 56 57 57 56 55 58 58 57 59 60 60 60 59 55 49 48 48 48 48 48 49 49 48 49 49 49 50 50 52 54
36 37 36 36 36 41 47 46 54 56 56 55 55 55 56 57 57 57 57 58 58 59 53 51 48 47 48 47 47 48 47 47 47 47 47 46 46 49
32 32 34 36 35 35 35 36 38 45 54 55 54 54 55 55 55 57 57 57 56 54 56 55 53 52 49 46 48 47 46 45 46 46 46 45 45 45
28 29 30 32 32 32 32 32 33 34 40 42 38 43 38 35 38 42 51 53 51 44 50 53 54 53 52 47 41 42 44 44 44 44 45 44 44 43
26 26 27 28 29 30 29 29 30 31 31 32 31 31 31 31 33 36 37 38 40 36 42 45 43 43 39 38 38 39 39 39 40 41 41 42 41 41
26 26 26 26 28 28 28 27 27 28 29 29 29 29 30 31 32 34 34 35 36 33 31 37 35 35 36 36 37 37 37 37 37 37 38 38 39 39
22 25 24 25 28 28 24 24 24 25 29 29 30 29 29 29 29 30 29 34 33 31 28 29 33 33 33 32 33 34 34 34 34 34 36 37 37 38
18 20 23 23 24 23 21 21 20 21 24 24 25 25 26 26 27 26 26 25 27 30 27 26 31 32 33 31 31 31 32 32 32 33 34 35 35 38
15 16 18 20 21 21 20 19 19 20 20 21 22 22 22 23 24 25 25 26 23 23 26 26 26 29 31 31 31 29 29 30 30 32 30 31 33 34
12 13 14 16 16 17 15 17 17 15 16 16 16 17 19 21 21 23 24 25 26 25 26 26 25 25 25 26 29 30 29 28 29 29 29 30 30 30
11 12 12 12 12 11 12 12 10 10 11 11 12 14 16 19 20 20 21 22 25 23 24 23 23 24 26 26 26 28 26 27 27 27 28 27 28 29
7 6 7 10 4 5 6 6 6 7 8 8 9 11 14 15 16 17 17 17 18 18 21 22 21 22 22 23 24 23 25 24 26 27 26 26 26 28
3 3 2 3 2 1 1 0 1 2 3 6 6 7 8 10 12 14 14 14 14 15 16 18 21 21 23 20 20 20 23 24 25 26 25 23 25 26
1 -1 -1 -0 -0 -1 -2 -2 -2 -2 -1 3 3 4 5 6 8 11 12 10 10 12 14 16 17 16 16 20 21 19 20 23 25 25 25 22 22 25
1 -1 -2 -2 0 -1 -2 -3 -4 -3 -2 -2 -1 0 1 3 6 8 9 8 8 9 11 13 16 16 11 10 15 20 20 21 23 22 22 22 21 23
4 2 -1 0 1 -0 -2 -4 -5 -5 -5 -5 -3 -3 -3 1 3 4 6 5 6 7 8 9 11 13 14 13 13 15 20 22 22 21 20 22 22 23
4 4 2 1 1 0 -5 -8 -11 -8 -8 -10 -6 -6 -6 -3 -1 1 3 3 3 4 5 6 9 14 18 19 14 14 16 21 25 22 21 19 18 18
3 4 4 2 -2 -1 -4 -11 -5 -8 -6 -6 -7 -6 -6 -4 -2 0 1 2 3 4 3 5 8 10 15 14 13 13 14 17 20 22 23 23 20 17
1 2 3 2 -2 -2 -1 -4 -6 -9 -8 -7 -8 -6 -8 -5 -2 -1 -0 0 1 2 2 3 5 8 9 14 13 13 15 15 17 17 17 21 22 23
Lifted_Index
1 1 1 0 -0 -0 -0 -0 -0 1 2 2 2 1 0 -1 -2 -3 -3 -3 -3 -2 -2 -1 -1 -1 -1 -1 0 1 1 1 1 2 2 3 3 3
2 2 1 0 -1 -1 -1 -1 -0 1 2 2 2 1 0 -1 -1 -2 -2 -2 -2 -2 -2 -1 -1 -1 -1 -1 0 1 1 1 1 1 2 2 2 2
4 3 2 0 -1 -1 -1 -1 -0 1 1 1 1 1 1 -0 -1 -1 -1 -1 -2 -2 -2 -1 -1 -1 -1 -1 -0 1 1 1 1 1 1 1 2 2
5 4 2 1 -0 -1 -1 -1 -0 -0 0 0 0 0 0 -0 -1 -1 -1 -1 -1 -2 -2 -1 -1 -1 -1 -1 -0 0 1 1 1 1 1 1 1 1
5 4 3 1 1 -0 -1 -1 -0 -0 -0 -0 -0 -1 -1 -0 -0 -0 -0 -1 -1 -2 -2 -1 -1 -1 -1 -1 -0 0 1 1 1 1 1 1 1 1
5 5 4 3 2 1 0 0 -0 -0 -0 -0 -0 -0 -0 0 0 0 0 -0 -1 -2 -2 -1 -1 -1 -1 -0 0 0 1 1 1 2 2 2 2 2
6 5 5 4 3 2 1 1 0 -0 -0 0 0 0 0 1 1 1 1 0 -0 -1 -1 -1 -0 -0 0 0 0 1 1 1 1 2 2 2 2 2
7 7 6 5 4 3 3 2 2 1 1 1 1 1 1 1 1 1 0 0 -0 -0 -1 -0 0 1 1 1 1 1 1 1 1 1 2 2 2 2
9 9 8 8 7 6 6 5 4 4 3 3 3 2 2 2 2 2 1 -0 -0 -0 -0 -0 0 1 1 1 2 2 2 2 2 2 2 3 3 3
12 11 11 11 10 10 9 8 7 8 9 9 8 7 6 6 5 4 3 1 0 1 1 1 1 1 2 2 3 3 3 4 4 4 4 4 3 3
15 15 14 14 14 13 11 10 10 11 13 14 14 13 12 11 10 8 6 4 3 3 4 3 2 2 2 3 4 5 5 5 5 5 5 5 4 4
17 17 18 18 17 16 14 13 12 13 14 15 16 15 15 14 13 12 10 8 6 7 8 7 6 5 4 4 5 6 7 7 7 7 7 6 6 6
18 18 20 20 20 19 18 16 16 15 16 16 16 16 15 16 16 16 15 13 11 12 13 12 10 8 7 6 7 8 9 9 9 9 9 9 8 8
19 20 21 21 20 20 20 19 19 19 18 18 18 18 18 19 20 20 20 19 18 17 18 17 15 13 11 9 9 10 11 11 11 11 11 11 10 10
22 22 22 22 21 21 21 21 20 20 19 19 19 20 21 22 22 23 23 23 22 21 21 21 19 17 15 13 12 12 12 13 14 14 13 13 12 12
22 22 22 22 22 22 22 22 22 21 20 20 20 21 22 22 22 23 23 23 22 22 22 23 22 20 19 17 16 15 15 15 16 16 15 15 15 15
22 21 21 20 21 21 22 23 23 23 23 22 22 22 22 22 22 23 23 22 21 21 22 23 23 22 21 20 19 18 17 17 18 18 17 16 17 18
21 21 20 20 21 21 22 23 24 24 25 25 24 24 24 23 23 24 23 23 22 22 22 23 23 22 21 21 21 20 19 19 19 19 19 18 18 19
22 21 21 22 22 23 23 24 25 26 26 26 26 25 25 25 25 25 25 24 24 23 24 24 24 22 21 20 21 22 21 20 20 20 20 20 20 21
23 23 24 24 25 25 25 26 26 27 27 27 27 27 27 26 26 26 26 26 25 25 25 25 25 24 23 22 22 23 23 23 22 22 22 22 22 23
25 25 26 26 27 27 27 27 28 28 28 28 28 28 28 27 27 27 27 27 27 27 26 26 27 27 26 25 23 23 24 24 24 24 23 23 23 23
26 27 27 27 27 28 28 28 28 28 29 29 29 29 29 29 29 29 29 28 28 28 28 28 28 28 27 26 24 24 24 25 25 25 25 24 24 23
27 27 27 27 27 28 28 28 28 29 29 29 30 30 30 29 30 30 30 29 29 29 29 28 28 28 28 27 25 24 24 25 25 25 25 25 25 24